{"data":{"norad_id":69983,"intl_designator":"2026-159J","name":"STARLINK-38077","alt_names":[],"object_type":"PAYLOAD","status":"ACTIVE","operator":null,"country":"US","launch_date":"2026-07-11","launch_site_code":"AFWTR","launch_vehicle":null,"mission":null,"orbit_class":"UNKNOWN","rcs_meters":null,"size_class":null,"mass_kg":null,"dimensions":null,"purposes":["comms"],"wikipedia_slug":null,"has_3d_model":false,"image_url":null,"decayed_at":null,"tle_current":{"epoch":"2026-09-20T04:00:03.000096Z","epoch_age_seconds":46585,"freshness":"FRESH","line1":"1 69983U 26159J   26263.16670139 -.02804555  00000+0 -81946-1 0  9999","line2":"2 69983  97.2855 105.1124 0001486  77.5840 271.8516 15.38927480  5942","mean_motion":15.3892748,"eccentricity":0.0001486,"inclination_deg":97.2855,"raan_deg":105.1124,"arg_perigee_deg":77.584,"mean_anomaly_deg":271.8516,"bstar":-0.081946,"rev_number":594,"period_min":93.571660699697,"perigee_km":448.26506304232,"apogee_km":450.29417126094,"semimajor_km":6827.4166171516,"source":"CELESTRAK","updated_at":"2026-09-20T09:00:44.329326Z"}}}